Location: Mentone
(34.5413°N, 85.5351°W)
Time: 23:46:07
(UTC-06:00)

Uosat F - Visible Passes

Search period start: 05 December 2016 00:00
Search period end: 15 December 2016 00:00
Orbit: 750 x 761 km, 98.8° (Epoch: 05 December)

Date Brightness Start Highest point End Pass type
(mag) Time Alt. Az. Time Alt. Az. Time Alt. Az.
05 Dec 12.1 05:44:32 10° NNE 05:49:25 51° E 05:54:16 10° S visible
05 Dec 11.3 16:54:08 10° SSE 16:58:59 49° ENE 17:03:50 10° N visible
05 Dec 14.1 18:35:02 10° SW 18:37:57 15° W 18:40:53 10° WNW visible
06 Dec 13.9 05:06:09 10° NE 05:09:47 20° E 05:13:23 10° SE visible
06 Dec 12.5 17:53:34 10° SSW 17:58:16 39° W 18:02:59 10° NNW visible
07 Dec 11.2 06:04:16 10° NNE 06:09:17 83° ESE 06:14:17 10° SSW visible
07 Dec 11.0 17:13:45 10° SSE 17:18:47 80° ENE 17:23:49 10° N visible
08 Dec 13.1 05:25:19 10° NE 05:29:45 32° E 05:34:11 10° SSE visible
08 Dec 13.4 18:14:07 10° SSW 18:18:13 25° W 18:22:19 10° NW visible
09 Dec 14.3 04:48:09 10° ENE 04:50:01 12° E 04:51:52 10° ESE visible
09 Dec 11.6 17:33:39 10° S 17:38:38 65° WSW 17:43:38 10° NNW visible
10 Dec 12.1 05:44:48 10° NNE 05:49:41 51° E 05:54:31 10° S visible
10 Dec 11.3 16:54:26 10° SE 16:59:15 49° ENE 17:04:06 10° N visible
10 Dec 14.1 18:35:16 10° SW 18:38:13 16° W 18:41:11 10° WNW visible
11 Dec 13.9 05:06:26 10° NE 05:10:02 20° E 05:13:38 10° SE visible
11 Dec 12.5 17:53:50 10° SSW 17:58:32 40° W 18:03:14 10° NNW visible
12 Dec 11.2 06:04:31 10° NNE 06:09:33 82° ESE 06:14:33 10° SSW visible
12 Dec 11.0 17:14:02 10° SSE 17:19:03 79° ENE 17:24:05 10° N visible
13 Dec 13.1 05:25:35 10° NE 05:30:01 31° E 05:34:25 10° SSE visible
13 Dec 13.4 18:14:23 10° SSW 18:18:28 25° W 18:22:36 10° NW visible
14 Dec 14.3 04:48:28 10° ENE 04:50:16 12° E 04:52:03 10° ESE visible
14 Dec 11.5 17:33:55 10° S 17:38:54 66° WSW 17:43:54 10° NNW visible
